McCall, ID

1:48 PM MST on December 18, 2017 (GMT -0700)
McCall

Weather History for KMYL - March, 2012

Change the Weather History Date:

Wednesday, March 21, 2012

  Actual Average Record
Temperature  
Mean Temperature 40 °F 30 °F  
Max Temperature 44 °F 41 °F 60 °F (1978)
Min Temperature 36 °F 20 °F -5 °F (1952)
Degree Days  
Heating Degree Days 25 35  
Month to date heating degree days 755 782  
Since 1 July heating degree days 6774 7457  
Cooling Degree Days 0 0  
Month to date cooling degree days 0 0  
Year to date cooling degree days 0 0  
Moisture  
Dew Point 33 °F    
Average Humidity 75    
Maximum Humidity 85    
Minimum Humidity 65    
Precipitation  
Precipitation 0.01 in 0.08 in 0.79 in (1958)
Month to date precipitation 4.38 1.37  
Year to date precipitation 10.04 4.84  
Sea Level Pressure  
Sea Level Pressure 29.92 in    
Wind  
Wind Speed 12 mph (SSE)    
Max Wind Speed 25 mph    
Max Gust Speed 31 mph    
Visibility 10 miles    
Events Rain    
T = Trace of Precipitation, MM = Missing Value Source: NWS Daily Summary

Daily Weather History Graph

Daily Weather History Graph

Search for Another Location

Airport or City:

Trip Planner

Search our weather history database for the weather conditions in past years. The results will help you decide how hot, cold, wet, or windy it might be!

Date:

Astronomy

Mar. 21, 2012 Rise Set
Actual Time 7:44 AM MDT 7:58 PM MDT
Civil Twilight 7:15 AM MDT 8:28 PM MDT
Nautical Twilight 6:40 AM MDT 9:02 PM MDT
Astronomical Twilight 6:05 AM MDT 9:38 PM MDT
Moon 6:58 AM MDT (3/21) 7:30 PM MDT (3/21)
Length of Visible Light 13h 12m
Length of Day
12h 14m
Waning Crescent, 1% of the Moon is Illuminated
Mar 21
Waning Crescent
Mar 22
New
Mar 30
First Quarter
Apr 6
Full
Apr 13
Last Quarter

Hourly Weather History & Observations

Time (MDT) Temp. Windchill Dew Point Humidity Pressure Visibility Wind Dir Wind Speed Gust Speed Precip Events Conditions
12:51 AM 34.0 °F - 32.0 °F 92% 29.99 in 10.0 mi Calm Calm - 0.02 in   Overcast
1:51 AM 37.0 °F 26.2 °F 32.0 °F 82% 29.97 in 10.0 mi South 21.9 mph - N/A   Overcast
2:30 AM 37.4 °F 28.2 °F 32.0 °F 81% 29.92 in 10.0 mi South 16.1 mph - N/A   Overcast
3:01 AM 37.4 °F 27.2 °F 32.0 °F 81% 29.91 in 10.0 mi South 19.6 mph - 0.00 in Rain Light Rain
3:17 AM 37.4 °F 27.8 °F 32.0 °F 81% 29.91 in 10.0 mi South 17.3 mph 26.5 mph 0.00 in   Overcast
3:51 AM 37.9 °F 27.9 °F 32.0 °F 79% 29.96 in 10.0 mi SSE 19.6 mph 27.6 mph 0.00 in   Overcast
3:59 AM 39.2 °F 29.8 °F 32.0 °F 75% 29.90 in 10.0 mi South 18.4 mph - N/A   Overcast
4:51 AM 37.9 °F 28.2 °F 32.0 °F 79% 29.95 in 10.0 mi South 18.4 mph 24.2 mph 0.00 in Rain Light Rain
5:10 AM 37.4 °F 28.2 °F 32.0 °F 81% 29.90 in 10.0 mi South 16.1 mph - 0.00 in Rain Light Rain
5:51 AM 37.9 °F 28.5 °F 32.0 °F 79% 29.94 in 10.0 mi South 17.3 mph - 0.00 in Rain Light Rain
6:51 AM 37.0 °F 29.8 °F 33.1 °F 86% 29.94 in 10.0 mi SE 10.4 mph - 0.00 in Rain Light Rain
7:06 AM 37.4 °F 29.3 °F 33.8 °F 87% 29.90 in 10.0 mi SE 12.7 mph 19.6 mph N/A   Overcast
7:51 AM 37.9 °F 30.5 °F 32.0 °F 79% 29.94 in 10.0 mi SSE 11.5 mph - 0.00 in   Overcast
8:51 AM 37.9 °F 28.2 °F 32.0 °F 79% 29.96 in 10.0 mi South 18.4 mph 26.5 mph 0.00 in   Overcast
9:51 AM 37.9 °F 29.2 °F 33.1 °F 83% 29.96 in 10.0 mi South 15.0 mph - 0.00 in   Overcast
10:13 AM 37.4 °F 31.4 °F 33.8 °F 87% 29.92 in 10.0 mi SE 8.1 mph - N/A   Overcast
10:31 AM 37.4 °F 30.8 °F 33.8 °F 87% 29.92 in 10.0 mi SSE 9.2 mph - N/A   Overcast
10:44 AM 39.2 °F 33.6 °F 33.8 °F 81% 29.93 in 10.0 mi SSE 8.1 mph - N/A   Overcast
10:51 AM 39.0 °F 32.3 °F 33.1 °F 79% 29.96 in 10.0 mi SSE 10.4 mph - N/A   Overcast
11:15 AM 37.4 °F 28.9 °F 33.8 °F 87% 29.93 in 10.0 mi South 13.8 mph - 0.00 in Rain Light Rain
11:51 AM 39.9 °F 33.4 °F 32.0 °F 73% 29.97 in 10.0 mi SSE 10.4 mph 20.7 mph 0.00 in   Overcast
12:05 PM 39.2 °F 30.8 °F 33.8 °F 81% 29.93 in 10.0 mi SSE 15.0 mph 21.9 mph 0.00 in Rain Light Rain
12:51 PM 39.0 °F 31.4 °F 33.1 °F 79% 29.97 in 10.0 mi SSE 12.7 mph - 0.00 in Rain Light Rain
1:51 PM 39.0 °F 30.6 °F 33.1 °F 79% 29.96 in 10.0 mi SE 15.0 mph 23.0 mph 0.00 in Rain Light Rain
2:51 PM 39.9 °F 32.9 °F 33.1 °F 77% 29.95 in 10.0 mi SE 11.5 mph - 0.01 in Rain Light Rain
3:06 PM 39.2 °F 31.6 °F 33.8 °F 81% 29.92 in 10.0 mi SE 12.7 mph - 0.00 in Rain Light Rain
3:19 PM 39.2 °F 32.0 °F 33.8 °F 81% 29.92 in 10.0 mi SE 11.5 mph 18.4 mph 0.00 in   Overcast
3:38 PM 39.2 °F 32.0 °F 32.0 °F 75% 29.92 in 10.0 mi SE 11.5 mph - 0.00 in Rain Light Rain
3:51 PM 39.9 °F 33.4 °F 32.0 °F 73% 29.93 in 10.0 mi SSE 10.4 mph - 0.00 in   Overcast
4:51 PM 39.9 °F 33.9 °F 33.1 °F 77% 29.92 in 10.0 mi SE 9.2 mph - 0.00 in Rain Light Rain
5:51 PM 41.0 °F 38.0 °F 33.1 °F 73% 29.89 in 10.0 mi SSE 4.6 mph - 0.00 in   Overcast
6:51 PM 43.0 °F 37.7 °F 33.1 °F 68% 29.87 in 10.0 mi SE 9.2 mph - N/A   Overcast
7:51 PM 44.1 °F 37.1 °F 33.1 °F 65% 29.85 in 10.0 mi SE 15.0 mph 20.7 mph N/A   Overcast
8:51 PM 39.9 °F 33.9 °F 32.0 °F 73% 29.85 in 10.0 mi SE 9.2 mph - N/A   Overcast
9:51 PM 42.1 °F - 32.0 °F 67% 29.83 in 10.0 mi Calm Calm - N/A   Clear
10:51 PM 42.1 °F 37.7 °F 32.0 °F 67% 29.82 in 10.0 mi ESE 6.9 mph - N/A   Mostly Cloudy
11:51 PM 41.0 °F 33.9 °F 32.0 °F 70% 29.81 in 10.0 mi SSE 12.7 mph - N/A   Scattered Clouds